Flag for Micronesia Weather past 2 weeks in Weno, Truk, Micronesia

Now
79 °F

Mostly cloudy.


Feels Like: 83 °F
Forecast: 77 / 86 °F
Wind: 3 mph from North

Location: Truk Intl / Moen Island

Current Time: Jul 23, 2014 at 9:44:09 AM

Latest Report: Jul 23, 2014 at 2:52 AM


Visibility: 15 mi

Pressure: 29.72 "Hg

Humidity: 99%

Dew point: 78 °F

Location of WenoLocation

Historic Weather in Weno — Graph

°F

Weno temperature yesterday

Maximum temperature yesterday: 83 °F (at 9:50 AM)
Minimum temperature yesterday: 77 °F (at 12:52 AM)
Average temperature yesterday: 80 °F

Past Weeks' High & Low Weather Summary

 TemperatureHumidityPressure
High89 °F (Jul 15, 12:50 PM)100% (Jul 8, 2:50 AM)29.86 "Hg (Jul 8, 2:50 AM)
Low76 °F (Jul 19, 9:50 AM)76% (Jul 12, 12:53 PM)29.71 "Hg (Jul 15, 2:51 PM)
Average81 °F92%29.79 "Hg
* Reported Jul 8 2:50 AM — Jul 23 2:52 AM, Weno, Weather by CustomWeather, © 2014

Note: Actual official high and low records may vary slightly from our data, if they occured in-between our weather recording intervals... More about our weather records

Advertising

Weno weather history for previous 24 hours

 ConditionsComfort  
Time TempWeatherWind HumidityBarometerVisibility
2:52 AM
Jul 23
79 °FMostly cloudy.3 mph99%29.72 "Hg15 mi
1:50 AM79 °FMostly cloudy.3 mph98%29.72 "Hg15 mi
12:56 AM80 °FMostly cloudy.3 mph97%29.74 "Hg15 mi
11:55 PM
Jul 22
80 °FMostly cloudy.3 mph98%29.76 "Hg15 mi
10:50 PM79 °FMostly cloudy.3 mph99%29.78 "Hg15 mi
9:50 PM78 °FMostly cloudy.3 mph100%29.79 "Hg15 mi
8:50 PM78 °FMostly cloudy.3 mph100%29.78 "Hg15 mi
7:51 PM78 °FMostly cloudy.3 mph100%29.78 "Hg15 mi
6:50 PM79 °FMostly cloudy.3 mph99%29.78 "Hg15 mi
5:54 PM80 °FMostly cloudy.3 mph96%29.75 "Hg15 mi
4:52 PM82 °FMostly cloudy.3 mph93%29.73 "Hg15 mi
3:50 PM83 °FMostly cloudy.3 mph92%29.73 "Hg15 mi
2:52 PM82 °FCloudy.5 mph94%29.72 "Hg15 mi
1:51 PM81 °FCloudy.3 mph98%29.74 "Hg15 mi
12:52 PM80 °FCloudy.3 mph99%29.76 "Hg15 mi
11:50 AM79 °FLight rain. More clouds than sun.3 mph100%29.78 "Hg12 mi
9:50 AM83 °FMostly cloudy.8 mph93%29.80 "Hg15 mi
Weather by CustomWeather, © 2014

See weather overviewHow to use our weather pages